Погода Столб Остров

Погода Столб Остров : погода сейчас, прогноз погоды и архив. Всё, что Вы хотите узнать о погоде Столб Остров!

Поиск расширенной информации на нашем сайте:

Другие новости

Новости СМИ2

Главная страница сайта

Новости сайта

02.10.2013

Напоминаем, что на нашем новом сайте вы можете получить высокодетализированные прогнозы погоды по пунктам России, СНГ и мира (включающие важные для авиации метеовеличины, такие как направление и скорость ветра, видимость, явления погоды, количество и форма облачности, нижняя и верхняя граница облачности), а также ознакомиться с разнообразными материалами по авиационной метеорологии и подборкой полезных ссылок на эту тему.

Сайт Метеоцентр.Азия посвящён разработке технологий оптимизации авиаметеорологического обслуживания, включая проектирование и перспективное создание нескольких автоматизированных авиаметеорологических систем:
- система выпуска высокодетальных прогностических карт явлений погоды для нижнего воздушного пространства по России и ближнему зарубежью;
- система верификации прогнозов TAF (выпускаемых синоптиками официальных АМСГ РФ и ближнего зарубежья) и AUTOTAF (выпускаемых сайтом Метеоцентр.Азия) - выявление ошибок, онлайн-сопоставление с фактической погодой METAR, автоматическое внесение коррективов в прогнозы при резком отклонении фактической погоды от прогноза, подсчёт оправдываемости прогнозов по элементам и в целом;
- система обработки, анализа и отображения авиаметеорологической информации для применения провайдерами метеорологической информации.


Погода Столб Остров - сегодня

Время (UTC), дата Ветер
(°,м/с) 
Видим.   Явления Облачность Т
(°С)
Тd
(°С)
f(%) Тe
(°С)
Pmin
(гПа)
dP
(гПа)
Po
(мм)
O2
(г/м3)
Тmin Tmax R s Состояние
почвы
18 19.06.17 270 (З) 8-10{12}  20000 м    6/6 600 м 
[Sc]
+3.4 -0.1 78 1006.8  -0.2  753  300           
21 19.06.17 260 (З) 5{11}  20000 м    9/9 600 м 
[Sc]
+3.6 -0.1 77 +1  1006.7  -0.1  753  300           
00 20.06.17 290 (З) 10 км  слаб. ливневой дождь  10/10 600 м кучево-дожд. 
[Cb cap]
+4.2 +0.5 77 +2  1006.7  753  299  +2.8    0.0    мокрая 
03 20.06.17 330 (СЗ) 20000 м  {ливн. осадки}  10/10 600 м 
[Sc]
+5.2 +1.1 75 +4  1006.8  0.1  753  298           
06 20.06.17 340 (С) 20000 м    10/10 600 м 
[Sc]
+5.8 +1.7 75 +6  1007.1  0.3  754  297           
09 20.06.17 010 (С) 20000 м    4/4 1000 м 
[Sc]
+6 +2.6 79 +7  1008.1  754  297           
12 20.06.17 330 (СЗ) 20000 м    ясно 
+7.4 +3.1 74 +8  1008.7  0.6  755  296    +8.4  0.0     
15 20.06.17 150 (ЮВ) 20000 м    10/0 верхняя 
[Ci fib]
+5 +2.8 86 +4  1008.8  0.1  755  298           
18 20.06.17 140 (ЮВ) 20000 м    10/0 верхняя 
[Ci fib]
+4.7 +2.2 84 +4  1008.5  0.3  755  299           
21 20.06.17 140 (ЮВ) 20000 м    8/0 верхняя 
[Ci fib]
+8.8 +4.5 74 +7  1006.8  -1.7  753  293           
00 21.06.17 150 (ЮВ) 9-11{13}  20000 м    10/0 средняя, верхняя 
[Ac trans|Ci fib]
+10.6 +5.6 71 +8  1004.8  -2  752  291  +3.6        мокрая 
03 21.06.17 150 (ЮВ) 8-10{14}  20000 м    10/0 средняя, верхняя 
[Ac trans|Ci fib]
+14.5 +6.9 60 +13  1002  -2.7  750  286           
06 21.06.17 140 (ЮВ) 8-11{13}  20000 м    10/0 средняя, верхняя 
[Ac trans|Ci fib]
+17 +7.5 54 +16  999.1  -2.9  748  282           
09 21.06.17 150 (ЮВ) 7-10{12}  20000 м  {дождь}  10/10 600 м 
[Sc]
+12.2 +7.5 73 +11  996.9  -2.2  746  286           
12 21.06.17 150 (ЮВ) 8-11{12}  20000 м  {дождь}  10/8 600 м верхняя 
[Sc|Ci fib]
+12.9 +8.1 73 +11  994.6  -2.3  744  285    +17.4  0.4     
15 21.06.17 270 (З) 6{11}  20000 м    10/8 600 м верхняя 
[Sc|Ci fib]
+12.3 +10 86 +12  995.5  0.9  745  285           
18 21.06.17 300 (СЗ) 9-13{14}  20000 м    10/10 600 м 
[Sc]
+4.5 +3.3 92 +1  999  3.4  747  296           
21 21.06.17 300 (СЗ) 7-10{12}  20000 м    10/10 600 м 
[Sc]
+3 +2 93 1002.1  3.1  750  299           
00 22.06.17 330 (СЗ) 5{10}  2000 м  дымка  10/10 600 м 
[Sc]
+1.9 +1.6 98 -1  1004.4  2.3  752  300  +1.5        мокрая 
03 22.06.17 030 (СВ) 20000 м    10/10 600 м 
[Sc]
+2.2 +1.1 92 +2  1004.9  0.5  752  300           
06 22.06.17 070 (В) 20000 м    10/10 600 м 
[Sc]
+4.1 +1.8 85 +2  1003.2  -1.7  751  298           
09 22.06.17 090 (В) 10 км  слаб. дождь  10/10 600 м 
[Sc]
+4.6 +3.4 92 +2  1001.5  -1.7  749  296           
12 22.06.17 110 (В) 9-10{14}  10 км  слаб. дождь  10/10 600 м 
[Sc]
+3.6 +2.6 93 997.3  -4.2  746  296    +3.7     
15 22.06.17 120 (ЮВ) 7-10{13}  10 км  слаб. ливневой дождь  10/10 600 м кучево-дожд. 
[Cb cap]
+6.2 +5.3 94 +4  993.2  -4.1  743  292           
18 22.06.17 080 (В) 6{10}  10 км  слаб. ливневой дождь  10/10 600 м кучево-дожд. 
[Cb cap]
+4.8 +4.3 97 +2  992.2  -1  742  293           
Время (UTC), дата Ветер
(°,м/с) 
Видим.   Явления Облачность Т
(°С)
Тd
(°С)
f(%) Тe
(°С)
Pmin
(гПа)
dP
(гПа)
Po
(мм)
O2
(г/м3)
Тmin Tmax R s Состояние
почвы

Для получения пояснительной информации подведите курсор к названию столбца.

ПОГОДА Столб Остров - архив

Всё, что Вы хотите узнать о погоде Столб Остров - удобно и подробно!

Выберите нужную дату (начиная с 1 января 2015* года) и нажмите кнопку "Найти".
Будут отображены архивные сводки погоды по пункту Столб Остров, начиная с указанной даты.


Отображать данные в формате CSV (для использования в таблицах Excel)


Внимание! Наш архив погоды предназначен исключительно для личного некоммерческого использования в познавательных целях. Если Вам необходимы официальные справки о состоянии погоды (для производственных, юридических, коммерческих и т.п. целей), обращайтесь в органы Росгидромета.

*Примечание: данная дата относится к архиву по метеостанциям СССР (Россия, СНГ, Балтия).
Архив по метеостанциям Зарубежной Европы и Азии (кроме Китая) хранится 10 дней, по другим регионам земного шара (Китай, Африка, Америка, Австралия, Океания) - 1 день.

Столб Остров - район местоположения метеостанции


Название, широта, долгота, высота метеостанции:
Столб Остров 72.4°ш. 126.5°д. 26 м над ур. моря [Российская Федерация]

Дополнительная информация

В oтличие oт бoльшинства пoгoдных сайтoв мы публикуем пoдрoбную метеoинфoрмацию в детальнoм прoфессиoнальнoм фoрмате.

Характеристики температуры и влажнoсти вoздуха измеряются на высoте 2 м в тени вдали oт зданий и деревьев.
Скoрoсть ветра измеряется на высoте 10 м (на урoвне рoста челoвека скoрoсть ветра ниже в 1.5-2 раза). Если метеoстанция нахoдится в гoрoде или в лесу, тo скoрoсть ветра занижена на 2-4 м/с пo сравнению с oткрытым местoм. Скoрoсть ветра над акватoриями крупных рек и oзёр, а также на вершинах хoлмoв на 2-5 м/с выше, чем в oбычных услoвиях.
Атмoсфернoе давление в разных тoчках местнoсти мoжет значительнo oтличаться oт давления на метеoстанции, в зависимoсти oт услoвий рельефа (при пoдъёме на 10 м давление пoнижается примернo на 1 мм рт.ст.).